Location: Newark
(34.1333°N, 7.9667°W)
Time: 04:59:55
(UTC+00:00)

RS-44 - Visible Passes

Search period start: 03 June 2023 00:00
Search period end: 13 June 2023 00:00
Orbit: 1175 x 1510 km, 82.5° (Epoch: 02 June)

Date Brightness Start Highest point End Pass type
(mag) Time Alt. Az. Time Alt. Az. Time Alt. Az.
05 Jun ? 20:03:26 10° NNW 20:09:47 27° W 20:15:49 10° SW visible
06 Jun ? 20:28:52 10° NW 20:33:00 15° W 20:37:01 10° WSW visible
10 Jun ? 20:11:35 10° NW 20:14:31 13° WNW 20:17:23 10° W visible
